Theta_e
324 324 324 325 326 326 328 329 328 325 325 326 326 326 326 326 324 317 304 312 315 326 320 311 310 311 312 310 310 311 303 301 302 302 302 307 305 308 309 307 309 312 310 317 331
323 323 324 324 325 325 327 328 328 328 327 327 327 326 325 325 315 308 316 323 325 327 309 309 305 308 306 307 308 306 303 304 307 306 304 306 306 306 305 306 306 309 315 324 331
322 323 324 324 324 325 326 326 326 327 327 326 326 325 324 322 306 304 327 327 327 325 311 310 309 308 305 307 306 306 303 306 305 306 307 306 306 308 305 304 307 307 311 323 328
322 322 323 323 323 324 324 325 325 325 325 325 324 323 322 315 294 308 325 327 328 319 310 306 306 304 302 301 305 302 303 305 304 304 305 305 307 305 306 306 309 311 313 321 325
321 321 322 322 323 324 325 325 324 323 323 323 323 322 315 303 302 314 326 326 319 312 306 305 303 304 300 302 302 302 301 302 304 303 305 305 304 305 305 309 308 309 311 317 322
319 320 320 320 322 324 324 323 323 322 322 322 323 322 312 297 311 316 317 314 310 307 306 307 304 307 302 302 301 303 302 301 301 302 302 303 303 302 306 307 307 307 309 313 318
319 319 319 320 321 322 323 322 321 321 322 321 323 317 304 302 312 316 314 311 311 309 305 307 308 305 304 300 302 302 298 300 300 301 300 302 299 300 306 304 303 304 306 309 312
318 318 318 319 320 321 321 321 321 321 321 323 323 313 299 312 314 310 312 309 310 310 308 309 308 306 304 304 300 299 300 295 299 300 301 300 297 304 304 303 303 304 305 306 309
317 317 317 319 319 320 320 320 320 320 320 322 312 308 297 312 306 310 311 307 308 309 309 307 308 303 302 298 295 296 291 294 294 300 299 299 298 302 302 302 302 304 305 305 306
317 316 317 318 319 319 319 319 319 318 318 315 309 302 302 301 308 308 309 310 306 306 305 304 303 299 298 296 289 291 293 293 294 297 298 297 297 300 302 302 303 304 305 305 305
316 317 317 318 319 319 317 314 306 304 307 299 300 299 300 306 309 306 308 305 306 304 296 302 296 292 295 298 297 297 294 293 296 296 296 296 297 299 302 302 302 304 305 306 306
316 317 317 318 319 319 314 303 303 305 297 302 302 302 306 307 300 303 307 301 300 296 299 296 292 298 298 296 295 296 294 293 294 296 296 296 296 299 301 301 303 303 305 306 307
316 317 317 317 318 316 310 306 310 309 296 297 301 301 303 305 299 300 304 302 298 295 296 293 295 297 296 293 293 294 293 293 293 294 295 294 293 296 300 302 303 303 305 306 305
316 316 316 317 311 311 306 309 313 309 291 292 295 299 303 303 297 303 305 301 297 294 296 294 294 294 294 293 293 289 294 294 292 292 288 293 287 296 298 298 298 300 301 302 303
316 316 316 315 309 306 307 312 315 304 280 294 295 303 303 297 298 299 303 300 295 294 295 291 291 292 292 293 295 292 295 293 293 292 291 290 288 293 294 294 297 299 302 303 304
315 315 315 312 312 310 314 314 308 289 281 290 295 294 295 296 296 299 299 301 300 294 295 293 295 295 295 294 296 295 293 293 293 291 284 289 289 290 293 294 296 299 302 303 303
315 315 314 314 306 314 316 308 288 284 292 289 290 294 293 291 293 295 294 293 291 288 288 292 291 294 295 291 294 294 291 285 283 284 283 287 286 291 296 295 298 298 302 303 303
315 314 312 312 312 315 312 296 283 288 289 294 293 293 290 292 292 292 292 290 295 293 290 286 284 292 295 293 291 292 292 287 281 281 285 285 283 290 296 298 297 297 302 303 303
313 308 309 308 312 314 302 285 287 290 294 291 292 288 289 291 291 291 291 291 293 293 289 287 286 292 293 294 295 290 287 292 285 281 285 288 291 295 295 295 297 298 300 302 302
301 301 302 309 311 308 296 289 291 294 296 294 287 290 286 288 289 290 290 294 293 294 294 291 284 290 291 294 293 292 294 286 287 283 281 285 287 289 292 293 296 297 299 300 301
299 292 301 308 311 299 287 290 293 296 297 293 291 289 290 288 289 288 289 293 295 293 294 293 291 286 290 289 289 289 288 289 290 289 286 283 286 294 295 297 296 299 300 300 300
296 286 300 306 292 290 289 292 295 295 299 296 295 293 291 291 288 288 289 291 295 293 289 293 291 285 287 290 292 292 291 290 286 284 286 285 287 294 295 298 300 300 300 300 300
292 291 300 300 284 286 289 292 294 294 296 296 294 295 294 291 287 290 291 295 293 293 292 292 290 284 284 288 291 288 290 292 292 290 286 285 287 295 295 296 300 299 298 298 299
293 286 289 289 291 289 288 289 290 295 296 296 296 297 292 290 293 290 291 294 297 294 295 295 292 288 284 286 290 286 289 290 290 287 286 287 289 292 294 294 298 299 298 299 298
290 287 289 285 286 289 290 290 288 289 294 296 294 295 293 289 290 289 292 293 296 296 295 294 287 289 290 289 291 290 289 289 287 289 286 289 289 293 296 296 298 300 299 298 297
288 287 289 287 290 288 288 286 288 288 291 291 291 294 295 291 292 290 292 293 292 295 293 294 285 288 284 289 289 287 290 290 289 290 290 290 290 297 298 300 299 299 298 297 297
291 293 291 288 288 287 287 288 288 291 291 294 294 293 292 293 296 297 298 297 297 293 292 291 287 285 285 287 287 283 286 289 290 291 291 287 292 296 294 296 298 299 299 298 297
Wind_Speed
21 18 18 17 17 16 15 19 19 18 16 14 11 10 9 7 3 4 5 5 6 4 5 3 6 6 5 5 4 4 6 10 10 10 8 10 9 4 1 5 4 5 4 4 15
20 18 18 17 18 15 15 15 14 17 15 13 11 9 9 10 9 12 13 23 6 3 7 9 8 9 6 5 5 7 9 12 6 8 10 13 11 10 8 8 6 7 7 7 14
20 19 19 18 18 16 16 15 15 14 14 12 9 9 9 7 11 8 13 17 7 7 10 9 7 9 9 5 7 6 10 7 6 5 3 13 8 5 6 8 6 10 12 12 14
21 19 19 18 18 17 17 16 15 14 13 11 9 8 7 3 7 4 6 9 10 6 11 7 8 8 8 7 5 8 1 1 6 4 5 11 8 6 8 7 7 4 9 14 15
20 18 18 17 18 17 17 15 16 14 13 11 11 10 4 10 7 2 10 10 9 9 14 13 11 7 12 5 4 3 6 3 6 6 5 6 7 1 8 6 6 5 5 12 13
20 18 18 16 17 16 16 16 15 14 13 12 10 10 8 18 3 7 9 10 11 13 15 14 12 9 4 5 10 4 7 8 5 6 3 6 5 3 5 2 6 6 8 10 13
21 21 18 16 16 16 15 15 15 14 13 14 14 10 12 14 2 7 9 7 8 9 10 7 5 9 8 8 4 10 8 6 6 4 2 4 6 11 6 5 4 7 10 9 10
21 21 19 16 17 17 15 15 13 13 12 11 10 7 7 3 4 7 8 6 5 7 6 2 4 4 3 7 7 8 7 8 7 6 2 2 11 12 2 6 10 9 7 10 12
23 23 20 17 18 18 16 14 12 12 10 12 8 6 7 4 6 9 9 9 8 5 4 4 0 3 6 11 7 8 10 14 6 6 4 8 9 6 2 4 7 9 11 9 10
24 23 20 18 19 18 16 15 10 13 9 6 1 6 6 6 6 9 5 10 7 11 8 7 5 8 7 11 15 12 13 5 10 8 8 9 13 5 6 5 7 7 9 10 11
22 24 22 20 20 19 18 12 10 7 11 5 8 4 5 5 5 6 6 8 8 13 11 10 11 15 17 17 5 14 14 11 8 3 6 13 15 14 12 9 9 10 10 10 11
23 23 23 22 21 20 16 11 18 8 10 2 2 1 2 2 5 8 8 10 11 15 11 7 15 13 5 7 6 10 15 9 5 3 4 6 13 13 14 15 13 14 13 13 12
24 24 23 22 20 14 16 16 4 16 7 5 3 4 4 4 4 13 11 5 14 17 15 12 6 10 8 6 10 6 12 10 1 5 2 7 11 16 14 15 12 10 10 9 6
26 26 24 23 12 16 17 12 6 3 7 10 8 6 5 4 3 1 4 3 3 15 12 8 4 10 12 13 7 7 3 7 9 7 6 3 5 4 8 11 10 11 12 11 6
26 26 26 21 8 17 9 8 5 3 9 16 10 3 4 5 10 4 1 2 10 9 8 5 8 12 13 11 12 3 6 7 5 3 4 6 6 5 2 9 11 10 6 5 3
27 27 28 8 2 9 7 9 3 8 9 8 10 12 11 4 3 5 5 4 3 6 3 4 1 2 3 6 2 14 10 8 4 2 6 10 8 6 7 3 4 8 7 6 6
27 27 20 8 5 8 8 5 7 11 11 10 10 12 19 8 6 8 17 12 10 9 11 4 4 2 4 9 6 7 14 4 5 5 6 3 3 12 2 3 4 8 7 7 7
27 26 8 3 1 8 6 9 9 12 10 5 9 14 14 11 5 5 13 14 14 8 13 12 8 11 8 2 7 13 15 5 7 6 3 3 9 6 2 4 5 4 4 7 8
22 6 7 4 3 4 10 13 12 9 13 11 16 17 12 13 6 11 16 17 16 13 8 12 8 2 1 1 5 7 7 3 6 2 0 7 7 8 8 6 6 8 8 7 7
5 4 4 6 6 3 8 12 8 1 15 19 11 15 20 18 11 16 17 14 11 13 2 3 5 1 3 2 1 5 10 4 3 4 5 6 7 9 6 11 10 10 10 8 6
5 4 3 4 5 4 15 8 5 4 5 10 9 10 18 14 12 13 13 5 13 10 4 6 3 2 3 10 13 5 6 5 4 3 4 3 5 4 4 10 13 12 11 10 8
2 4 2 2 10 4 13 16 3 8 4 3 3 5 14 16 14 12 14 4 3 12 15 2 5 5 9 4 4 5 11 12 6 6 6 2 7 2 4 1 11 11 10 8 8
3 3 3 3 7 9 2 14 5 6 7 5 4 1 3 12 10 13 10 2 2 11 13 9 4 5 2 2 2 8 10 15 13 4 7 6 8 2 4 4 7 12 11 10 9
3 3 3 3 2 6 7 6 6 1 4 2 4 3 8 9 4 12 11 3 2 3 4 5 3 11 14 4 10 9 12 11 11 4 15 12 20 5 7 10 10 10 11 12 10
4 3 1 5 4 6 7 7 5 6 1 3 3 3 8 5 6 5 7 6 4 1 2 6 6 6 12 5 3 4 12 15 17 23 13 23 21 15 9 12 16 13 11 12 13
3 3 2 2 11 6 5 5 12 3 4 5 4 5 3 9 8 8 9 7 5 5 6 4 2 2 2 4 2 1 7 18 22 24 20 25 21 8 2 10 11 13 13 14 14
1 1 2 6 6 8 6 6 6 9 1 2 10 5 4 5 7 9 7 8 6 7 6 7 6 4 2 4 5 5 23 13 16 20 18 22 30 7 7 10 11 15 17 16 13
Wind_Direction
187 195 193 189 194 189 183 177 177 181 187 183 184 179 187 202 142 189 203 239 194 268 255 172 210 195 196 194 243 264 225 199 190 195 137 155 175 189 93 152 180 150 22 51 123
184 189 192 188 185 184 184 180 177 182 186 190 186 175 191 171 199 215 181 249 192 206 234 204 193 189 193 210 212 230 220 206 173 181 154 170 201 170 189 168 176 167 116 142 149
185 189 190 181 175 183 184 180 176 183 185 196 181 164 207 163 246 217 171 216 181 177 237 234 232 200 209 221 192 183 216 111 157 123 157 168 185 184 208 189 185 194 166 160 168
180 184 180 174 174 182 186 177 167 172 183 188 168 169 200 181 208 144 118 172 171 171 239 191 211 195 205 196 197 196 290 123 135 132 151 170 154 199 212 74 48 121 155 165 184
174 179 174 173 171 181 177 169 168 165 173 179 167 171 167 221 242 129 119 135 145 183 222 194 204 212 208 191 175 230 132 85 119 133 161 136 178 205 222 184 119 109 169 180 195
172 169 173 174 174 176 168 171 166 160 173 172 178 177 240 221 139 150 144 143 174 186 209 213 196 214 190 219 208 130 148 125 133 134 127 195 173 227 189 148 203 195 193 201 209
171 167 170 169 173 166 162 168 164 157 173 173 171 201 235 209 115 156 158 178 175 201 203 215 260 183 152 157 131 148 129 148 162 150 91 296 216 226 177 144 188 218 228 212 216
171 159 166 170 169 158 156 160 156 158 173 164 165 212 239 56 142 157 170 175 179 199 241 181 211 90 201 125 133 179 163 184 152 174 136 215 246 209 116 232 229 230 215 212 221
163 156 165 171 163 149 153 150 150 155 164 149 162 213 226 123 189 169 179 176 156 160 124 105 21 126 157 175 154 203 196 209 156 205 155 208 255 126 181 227 245 236 226 213 230
160 158 162 166 154 146 146 139 142 143 159 174 269 197 177 208 156 155 148 170 157 150 139 176 194 184 201 192 197 185 213 204 206 179 218 206 244 187 197 218 249 241 222 215 222
162 157 163 160 150 148 141 134 167 168 195 178 176 234 149 109 153 167 158 150 150 184 180 193 199 200 194 204 252 197 202 201 186 124 219 232 249 246 239 212 242 242 230 215 213
160 158 161 158 150 165 177 179 188 132 174 239 273 159 118 238 136 154 186 169 177 187 169 172 216 198 142 133 152 180 193 185 127 132 211 229 259 255 248 242 231 237 236 224 212
160 153 155 152 149 176 198 207 160 168 161 172 181 184 172 195 139 168 192 163 189 179 199 196 189 145 166 161 178 193 194 166 190 154 233 282 264 245 236 245 237 236 254 260 254
159 151 152 140 153 183 203 212 227 222 185 170 193 201 150 183 144 29 203 156 177 190 198 233 136 180 184 188 169 185 93 136 134 178 229 267 264 172 225 224 211 227 218 225 216
155 151 149 158 155 184 185 180 186 230 214 159 154 101 139 175 127 178 4 149 164 147 191 154 155 180 178 192 194 145 113 113 135 195 292 181 263 234 143 249 221 193 169 171 164
152 151 154 146 122 192 140 142 188 217 224 154 143 169 147 149 101 114 154 61 50 122 133 95 344 205 146 71 236 138 123 95 114 190 246 230 225 250 205 226 118 143 165 158 156
152 153 160 160 143 138 141 157 175 216 137 165 180 174 173 153 125 192 181 173 164 162 181 130 146 113 185 101 136 196 163 142 193 200 246 54 212 249 175 154 223 161 156 147 154
151 151 134 115 120 161 164 190 206 191 188 118 159 164 174 151 156 160 180 186 221 244 170 182 191 181 166 207 179 195 192 177 191 194 183 88 231 244 25 61 166 158 146 147 148
129 141 136 89 78 164 180 196 197 186 147 142 150 164 170 179 156 166 196 200 193 207 183 193 169 63 63 44 158 167 203 65 109 45 88 200 245 271 176 176 197 177 178 166 148
102 90 87 114 114 152 204 204 181 19 142 158 165 188 182 182 169 193 186 203 184 187 266 211 117 16 100 182 157 220 144 151 234 177 224 223 259 245 205 217 190 182 186 165 145
51 89 79 123 95 182 208 199 148 164 183 189 166 173 189 178 192 196 184 139 188 174 167 162 110 105 170 211 179 159 181 215 247 201 207 243 229 31 290 186 189 186 172 164 160
98 107 355 147 170 193 199 200 82 176 180 154 157 116 185 179 187 192 192 232 196 153 189 167 100 154 197 48 357 287 212 186 188 200 241 34 263 91 50 154 176 169 157 148 149
72 92 28 349 166 187 175 207 223 186 195 170 144 144 145 170 184 199 183 66 148 175 180 174 172 116 127 209 205 216 203 218 221 50 196 197 252 138 128 163 172 167 164 159 160
144 116 42 44 56 142 147 161 167 338 141 118 126 133 143 159 64 176 160 148 149 196 25 181 130 205 208 196 143 206 209 204 218 198 228 223 248 159 185 184 179 179 178 171 173
1 89 22 153 169 135 125 159 141 159 283 202 132 265 192 113 158 153 141 134 127 134 129 187 202 220 245 56 60 191 188 189 206 226 219 239 246 239 203 198 198 185 180 181 185
116 145 131 53 134 119 137 173 173 139 155 174 200 141 80 163 191 184 156 166 159 162 169 155 149 115 60 82 89 7 231 201 212 229 236 251 259 248 350 171 189 185 187 199 195
99 73 342 146 147 157 177 153 157 142 58 172 220 169 202 90 66 69 68 92 128 166 159 157 141 125 166 111 98 280 225 208 222 230 228 238 247 237 191 200 200 196 203 202 191